Location: Unspecified
(49.8670°N, 0.0000°E)
Time: 22:05:09
(UTC+00:00)

SR - Visible Passes

Search period start: 24 June 2019 00:00
Search period end: 04 July 2019 00:00
Orbit: 582 x 874 km, 66.7° (Epoch: 24 June)

Date Brightness Start Highest point End Pass type
(mag) Time Alt. Az. Time Alt. Az. Time Alt. Az.
25 Jun ? 02:24:23 10° S 02:27:58 27° ESE 02:31:37 10° NE visible
26 Jun ? 01:36:36 10° SE 01:38:43 14° ESE 01:40:52 10° ENE visible
27 Jun ? 02:26:49 13° SSW 02:30:30 51° ESE 02:34:45 10° NE visible
28 Jun ? 01:38:29 14° SSE 01:41:07 25° ESE 01:44:42 10° ENE visible
29 Jun ? 00:50:07 10° SE 00:51:54 13° ESE 00:53:48 10° E visible
29 Jun ? 02:29:31 14° SW 02:33:10 86° NW 02:37:36 10° NE visible
30 Jun ? 01:41:07 21° S 01:43:38 48° ESE 01:47:52 10° NE visible
01 Jul ? 00:52:41 19° SE 00:54:16 24° ESE 00:57:47 10° ENE visible
01 Jul ? 02:32:05 11° WSW 02:35:59 48° NW 02:40:20 10° NNE visible
02 Jul ? 00:04:13 11° ESE 00:05:04 12° ESE 00:06:42 10° E visible
02 Jul ? 01:43:36 22° SW 01:46:17 89° ESE 01:50:45 10° NE visible
03 Jul ? 00:55:06 29° S 00:56:46 45° ESE 01:00:59 10° NE visible
03 Jul ? 02:35:09 10° WSW 02:38:57 30° NW 02:42:57 10° NNE visible
